TimeCST,TemperatureF,Dew PointF,Humidity,Sea Level PressureIn,VisibilityMPH,Wind Direction,Wind SpeedMPH,Gust SpeedMPH,PrecipitationIn,Events,Conditions,WindDirDegrees,DateUTC
12:53 AM,59.0,52.0,78,30.20,10.0,SSW,6.9,-,N/A,,Overcast,200,2013-11-22 06:53:00
1:53 AM,59.0,52.0,78,30.22,10.0,SSW,5.8,-,N/A,,Overcast,210,2013-11-22 07:53:00
2:53 AM,59.0,52.0,78,30.21,10.0,SSW,5.8,-,0.00,,Overcast,210,2013-11-22 08:53:00
3:53 AM,57.0,53.1,87,30.21,8.0,SSW,3.5,-,N/A,,Overcast,200,2013-11-22 09:53:00
4:18 AM,55.4,53.6,94,30.22,4.0,South,4.6,-,0.00,Rain,Light Rain,190,2013-11-22 10:18:00
4:53 AM,55.9,54.0,93,30.21,2.5,South,3.5,-,0.03,Rain,Light Rain,180,2013-11-22 10:53:00
4:56 AM,55.4,53.6,94,30.22,3.0,South,3.5,-,0.00,Rain,Light Rain,180,2013-11-22 10:56:00
5:26 AM,55.4,53.6,94,30.22,3.0,South,4.6,-,0.05,Rain,Rain,190,2013-11-22 11:26:00
5:33 AM,55.4,53.6,94,30.23,3.0,South,3.5,-,0.07,Rain,Rain,190,2013-11-22 11:33:00
5:53 AM,55.9,54.0,93,30.22,6.0,South,3.5,-,0.09,Rain,Light Rain,190,2013-11-22 11:53:00
6:51 AM,55.4,55.4,100,30.22,5.0,South,4.6,-,0.04,Rain,Light Rain,180,2013-11-22 12:51:00
6:53 AM,55.9,55.0,97,30.22,5.0,South,4.6,-,0.04,Rain,Light Rain,190,2013-11-22 12:53:00
7:19 AM,57.2,55.4,94,30.23,3.0,SW,4.6,-,0.02,Rain,Light Rain,220,2013-11-22 13:19:00
7:28 AM,57.2,55.4,94,30.23,2.5,SSW,4.6,-,0.02,Rain,Light Rain,210,2013-11-22 13:28:00
7:43 AM,57.2,55.4,94,30.23,3.0,SSW,3.5,-,0.03,Rain,Light Rain,210,2013-11-22 13:43:00
7:53 AM,57.0,55.0,93,30.23,3.0,Calm,Calm,-,0.03,,Overcast,0,2013-11-22 13:53:00
8:08 AM,57.2,55.4,94,30.24,5.0,SW,3.5,-,N/A,,Overcast,230,2013-11-22 14:08:00
8:17 AM,57.2,55.4,94,30.25,4.0,WSW,3.5,-,N/A,,Overcast,240,2013-11-22 14:17:00
8:24 AM,57.2,55.4,94,30.25,4.0,SW,4.6,-,N/A,,Overcast,220,2013-11-22 14:24:00
8:36 AM,57.2,55.4,94,30.25,1.8,SW,5.8,-,N/A,,Overcast,220,2013-11-22 14:36:00
8:42 AM,57.2,55.4,94,30.25,1.2,SW,5.8,-,0.01,Rain,Light Rain,220,2013-11-22 14:42:00
8:53 AM,57.0,55.9,96,30.25,1.5,SSW,4.6,-,0.01,Rain,Light Rain,210,2013-11-22 14:53:00
9:05 AM,57.2,55.4,94,30.25,2.5,SW,4.6,-,0.00,Rain,Light Rain,220,2013-11-22 15:05:00
9:19 AM,57.2,55.4,94,30.26,3.0,SW,5.8,-,0.00,,Overcast,220,2013-11-22 15:19:00
9:31 AM,57.2,55.4,94,30.26,2.5,SW,4.6,-,0.01,Rain,Light Rain,230,2013-11-22 15:31:00
9:41 AM,57.2,57.2,100,30.26,1.2,WSW,3.5,-,0.01,Rain,Light Rain,240,2013-11-22 15:41:00
9:53 AM,57.9,57.0,97,30.26,1.5,SW,4.6,-,0.02,Rain,Light Rain,230,2013-11-22 15:53:00
10:06 AM,57.2,57.2,100,30.26,2.5,WSW,5.8,-,0.01,Rain,Light Rain,240,2013-11-22 16:06:00
10:16 AM,57.2,57.2,100,30.26,2.5,SW,5.8,-,0.01,Rain,Light Rain,230,2013-11-22 16:16:00
10:34 AM,57.2,57.2,100,30.25,3.0,WSW,4.6,-,0.02,,Overcast,250,2013-11-22 16:34:00
10:41 AM,57.2,57.2,100,30.25,2.0,West,5.8,-,0.02,Rain,Light Rain,260,2013-11-22 16:41:00
10:53 AM,57.9,55.9,93,30.25,3.0,NW,6.9,-,0.03,Rain,Light Rain,320,2013-11-22 16:53:00
11:02 AM,57.2,55.4,94,30.25,8.0,NNW,8.1,-,0.00,,Overcast,330,2013-11-22 17:02:00
11:25 AM,55.4,53.6,94,30.25,7.0,NW,11.5,17.3,0.00,Rain,Light Rain,310,2013-11-22 17:25:00
11:53 AM,55.0,53.1,93,30.25,4.0,NW,12.7,16.1,0.00,Rain,Light Rain,310,2013-11-22 17:53:00
12:29 PM,53.6,51.8,94,30.25,9.0,NW,9.2,-,0.00,,Overcast,320,2013-11-22 18:29:00
12:43 PM,53.6,51.8,94,30.26,10.0,NW,10.4,18.4,0.00,,Overcast,320,2013-11-22 18:43:00
12:53 PM,53.1,51.1,93,30.25,10.0,NNW,8.1,-,0.00,,Overcast,330,2013-11-22 18:53:00
1:53 PM,52.0,50.0,93,30.27,3.0,NW,12.7,-,0.02,Rain,Light Rain,320,2013-11-22 19:53:00
2:34 PM,51.8,48.2,88,30.28,7.0,NNW,8.1,-,0.01,Rain,Light Rain,340,2013-11-22 20:34:00
2:53 PM,51.1,48.0,89,30.28,5.0,Variable,5.8,-,0.01,Rain,Light Rain,0,2013-11-22 20:53:00
3:53 PM,50.0,46.9,89,30.29,5.0,North,5.8,-,0.00,,Overcast,350,2013-11-22 21:53:00
4:35 PM,48.2,46.4,93,30.31,6.0,NNW,6.9,17.3,N/A,,Overcast,340,2013-11-22 22:35:00
4:53 PM,48.9,45.0,86,30.32,6.0,NNW,6.9,-,N/A,,Overcast,340,2013-11-22 22:53:00
5:53 PM,48.0,44.1,86,30.34,6.0,NNW,6.9,-,N/A,,Overcast,340,2013-11-22 23:53:00
6:15 PM,46.4,44.6,93,30.34,5.0,NNW,8.1,-,N/A,,Overcast,340,2013-11-23 00:15:00
6:53 PM,46.9,44.1,90,30.34,5.0,North,8.1,-,N/A,,Overcast,350,2013-11-23 00:53:00
7:53 PM,46.0,43.0,89,30.36,4.0,NNW,6.9,-,N/A,,Overcast,330,2013-11-23 01:53:00
8:31 PM,46.4,42.8,87,30.37,5.0,NNW,8.1,-,N/A,,Overcast,340,2013-11-23 02:31:00
8:53 PM,46.0,42.1,86,30.38,6.0,North,4.6,-,N/A,,Overcast,360,2013-11-23 02:53:00
9:53 PM,46.0,39.0,76,30.37,10.0,North,8.1,-,N/A,,Overcast,10,2013-11-23 03:53:00
10:53 PM,45.0,37.9,76,30.37,10.0,North,5.8,-,N/A,,Overcast,360,2013-11-23 04:53:00
11:53 PM,44.1,37.9,79,30.38,10.0,North,4.6,-,N/A,,Overcast,350,2013-11-23 05:53:00